User: anonymous
Location: Melbourne
(37.8666°S, 145.1333°E)
Time: 16:15:32
(UTC+10:00)
Language:

ATLAS CENTAUR R/B - Orbit

View from above orbital plane
View from above orbital plane
View from above satellite
View from above satellite

Ground track
Ground track

The orbit data is extracted from the following two-line orbital elements,

1 28385U 04034B   14150.14043890 0.00036000  00000-0  10401-2 0    07
2 28385  57.3484 162.8438 4117261 294.0385  28.6471  7.28635135    02
Epoch (UTC): 30 May 2014 03:22:13
Eccentricity: 0.4117261
inclination: 57.3484°
perigee height: 233 km
apogee height: 9488 km
right ascension of ascending node: 162.8438°
argument of perigee: 294.0385°
revolutions per day: 7.28635135
mean anomaly at epoch: 28.6471°
orbit number at epoch: 0

The dashed part of the orbit path shows where the satellite is in the earth's shadow,  

DLR